Powrót do katalogu

SL-12 R/B(2)

AktywnyGEO
NORAD 26895·ROCKET BODY·🇷🇺 Russia

Wystrzelony Aug 24, 2001 z Baikonur Cosmodrome

Loading…

TLE

ŚwieżeSource: Space-Track

Epoka: Sep 13, 2026, 22:36 UTC

1 26895U 01037D   26256.94173617  .00000116  00000-0  00000-0 0  9998
2 26895  13.3364  13.8551 0019336  85.6300 273.5572  1.00218909 91684

Śledź SL-12 R/B(2) w czasie rzeczywistym z AllMySat

Download on the App Store